DELTA 1 DEB, 10764

Orbit data source: Space-Track

DELTA 1 DEB, 10764 is space debris in SSO originally from a launch on Thu, 29 Jul 1976 UTC launched from the Air Force Western Test Range (AFWTR). Debris objects in space refer to the collection of defunct objects orbiting the Earth. Examples of debris include non-operational satellites, rocket bodies, and fragments generated from explosions, collisions, or faulty payload assembly.

Loading next visibility...
Identifier
10764, 1976-077BM
Orbit
SSO
Country
Flag of USUS
Related business
Manufacturer
Unknown
Mission
Spacecraft
Bus & Motor
Unknown
Mass
Unknown
Launch date (UTC)
1976-07-29 (50 years ago)
Launch vehicle
Unknown
Launch site
Air Force Western Test Range (AFWTR)
Object type
Payload
Rocket body
Debris
Shape & HBR
Unknown shape, 0.3 m
Radar Cross Section
Small (<0.1 m²)

Expand to show TLE details & history
Last TLE update: 16 hours ago

TLE from 16 hours ago
0 DELTA 1 DEB
1 10764U 76077BM  26118.62173887  .00000280  00000-0  34692-2 0  9991
2 10764 102.1384 249.1746 0225186  53.7851 330.9122 12.04677518188632
Epoch: 2026-04-28T14:55Z
TLE epoch observation values (Epoch: 2026-04-28T14:55:18.238Z)
Latitude
22.87748°
Longitude
163.57278°
Altitude
1,505.18 km
Speed
7.183 km/s
True Right ascension
16h 15m 58s
True Declination
22° 45' 58"
Sunlit
Object was in full shadow at epoch
Visualization orbit readout
Latitude
Unknown
Longitude
Unknown
Altitude
Unknown
Speed
Unknown
Apparent Right ascension
Unknown
Apparent Declination
Unknown
Sunlit
N/A
Visualization observer readout
Local Sidereal Time
14:44:24
Azimuth
Unknown
Elevation
Unknown
Doppler factor
Unknown
Orbital elements
Apogee altitude
1,838.567 km
Perigee altitude
1,476.659 km
Semi-major axis
8,035.75 km
Eccentricity
0.02252
Inclination
102.1384°
RAAN
249.1746°
Arg. of periapsis
53.7851°
True anomaly
329.62623°
Mean anomaly
330.9122°
Eccentric anomaly
330.27241°
Mean motion
3.01303 °/min
Orbital period
119.48 mins
BSTAR
0.0034692
Loading maneuver chart data...
Computing Atmospheric mass density...
Loading historical data...
Loading historical data...
Loading historical data...
Loading historical data...
Loading historical data...
Loading historical data...
Loading historical data...

Documentation

Showing up to 5 results
|